Back to catalog

DMSP 5D-2 F13 DEB

AliveSSO
NORAD 40565·DEBRIS·🇺🇸 United States

Launched Mar 24, 1995 from Vandenberg Space Force Base

Loading…

Next Passes (next 24 hours)

TLE

FreshSource: Space-Track

Epoch: Sep 11, 2026, 13:24 UTC

1 40565U 95015DY  26254.55836803  .00001152  00000-0  90003-3 0  9991
2 40565  98.8012   1.1794 0165447  24.3238 336.5618 13.87891197576072

Track DMSP 5D-2 F13 DEB in real time with AllMySat

Download on the App Store